Time,TemperatureF,DewpointF,PressureIn,WindDirection,WindDirectionDegrees,WindSpeedMPH,WindSpeedGustMPH,Humidity,HourlyPrecipIn,Conditions,Clouds,dailyrainin,SoftwareType,DateUTC
2013-06-07 00:03:00,76.0,74.0,29.85,South,180,1.0,5.0,93,0.00,,,2.25,,2013-06-07 04:03:00,
2013-06-07 00:12:00,76.0,74.0,29.85,South,180,1.0,5.0,93,0.00,,,2.25,,2013-06-07 04:12:00,
2013-06-07 00:23:00,76.0,74.0,29.85,SSW,205,1.0,4.0,93,0.00,,,2.25,,2013-06-07 04:23:00,
2013-06-07 00:33:00,76.0,74.0,29.85,South,190,1.0,4.0,93,0.00,,,2.25,,2013-06-07 04:33:00,
2013-06-07 00:42:00,76.0,74.0,29.85,South,190,1.0,4.0,93,0.00,,,2.25,,2013-06-07 04:42:00,
2013-06-07 00:53:00,76.0,74.0,29.84,SSW,202,1.0,4.0,93,0.00,,,2.25,,2013-06-07 04:53:00,
2013-06-07 01:03:00,75.0,73.0,29.85,SW,232,3.0,8.0,93,0.00,,,2.25,,2013-06-07 05:03:00,
2013-06-07 01:12:00,75.0,73.0,29.85,SW,232,3.0,8.0,93,0.00,,,2.25,,2013-06-07 05:12:00,
2013-06-07 01:22:00,75.0,73.0,29.85,SW,221,1.0,4.0,93,0.00,,,2.25,,2013-06-07 05:22:00,
2013-06-07 01:32:00,75.0,73.0,29.85,SW,221,0.0,4.0,93,0.00,,,2.25,,2013-06-07 05:32:00,
2013-06-07 01:42:00,75.0,73.0,29.85,SW,221,0.0,4.0,93,0.00,,,2.25,,2013-06-07 05:42:00,
2013-06-07 01:52:00,75.0,73.0,29.86,SW,221,0.0,2.0,94,0.00,,,2.25,,2013-06-07 05:52:00,
2013-06-07 02:02:00,75.0,73.0,29.86,SW,221,1.0,4.0,94,0.00,,,2.25,,2013-06-07 06:02:00,
2013-06-07 02:12:00,75.0,73.0,29.86,SW,221,1.0,4.0,94,0.00,,,2.25,,2013-06-07 06:12:00,
2013-06-07 02:22:00,75.0,73.0,29.86,SW,221,1.0,4.0,94,0.00,,,2.25,,2013-06-07 06:22:00,
2013-06-07 02:32:00,75.0,73.0,29.86,SSW,204,2.0,6.0,94,0.00,,,2.23,,2013-06-07 06:32:00,
2013-06-07 02:42:00,75.0,73.0,29.86,SSW,204,2.0,6.0,94,0.00,,,2.23,,2013-06-07 06:42:00,
2013-06-07 02:52:00,75.0,73.0,29.86,SSW,202,0.0,6.0,94,0.00,,,2.23,,2013-06-07 06:52:00,
2013-06-07 03:02:00,75.0,73.0,29.86,SSW,196,1.0,6.0,95,0.00,,,2.23,,2013-06-07 07:02:00,
2013-06-07 03:12:00,75.0,73.0,29.86,SSW,196,1.0,6.0,95,0.00,,,2.23,,2013-06-07 07:12:00,
2013-06-07 03:22:00,75.0,73.0,29.86,SSW,194,2.0,6.0,95,0.00,,,2.23,,2013-06-07 07:22:00,
2013-06-07 03:32:00,74.0,72.0,29.85,SSW,194,1.0,4.0,95,0.00,,,2.23,,2013-06-07 07:32:00,
2013-06-07 03:42:00,74.0,72.0,29.85,SSW,194,1.0,4.0,95,0.00,,,2.23,,2013-06-07 07:42:00,
2013-06-07 03:52:00,74.0,72.0,29.85,SSW,196,1.0,4.0,95,0.00,,,2.23,,2013-06-07 07:52:00,
2013-06-07 04:02:00,74.0,72.0,29.85,SSW,196,1.0,4.0,95,0.00,,,2.23,,2013-06-07 08:02:00,
2013-06-07 04:12:00,74.0,72.0,29.85,SSW,196,1.0,4.0,95,0.00,,,2.23,,2013-06-07 08:12:00,
2013-06-07 04:22:00,74.0,72.0,29.85,SSW,196,1.0,5.0,95,0.00,,,2.23,,2013-06-07 08:22:00,
2013-06-07 04:32:00,74.0,72.0,29.85,SSW,196,1.0,4.0,95,0.00,,,2.21,,2013-06-07 08:32:00,
2013-06-07 04:43:00,74.0,72.0,29.85,SSW,196,1.0,4.0,95,0.00,,,2.21,,2013-06-07 08:43:00,
2013-06-07 04:52:00,74.0,72.0,29.85,SSW,196,0.0,4.0,95,0.00,,,2.21,,2013-06-07 08:52:00,
2013-06-07 05:02:00,74.0,72.0,29.86,SSW,196,0.0,2.0,95,0.00,,,2.21,,2013-06-07 09:02:00,
2013-06-07 05:12:00,74.0,72.0,29.86,SSW,196,0.0,2.0,95,0.00,,,2.21,,2013-06-07 09:12:00,
2013-06-07 05:22:00,74.0,72.0,29.86,SSW,196,1.0,4.0,95,0.00,,,2.21,,2013-06-07 09:22:00,
2013-06-07 05:32:00,74.0,72.0,29.86,SSW,196,0.0,3.0,95,0.00,,,2.14,,2013-06-07 09:32:00,
2013-06-07 05:43:00,74.0,72.0,29.86,SSW,196,0.0,3.0,95,0.00,,,2.14,,2013-06-07 09:43:00,
2013-06-07 05:53:00,74.0,72.0,29.87,SSW,196,0.0,5.0,95,0.00,,,2.14,,2013-06-07 09:53:00,
2013-06-07 06:03:00,74.0,72.0,29.87,SSW,196,0.0,3.0,95,0.00,,,2.14,,2013-06-07 10:03:00,
2013-06-07 06:13:00,74.0,72.0,29.87,SSW,196,0.0,3.0,95,0.00,,,2.14,,2013-06-07 10:13:00,
2013-06-07 06:23:00,74.0,72.0,29.88,SSW,196,0.0,5.0,95,0.00,,,2.14,,2013-06-07 10:23:00,
2013-06-07 06:33:00,74.0,72.0,29.88,SSW,196,1.0,4.0,95,0.00,,,2.04,,2013-06-07 10:33:00,
2013-06-07 06:42:00,74.0,72.0,29.88,SSW,196,1.0,4.0,95,0.00,,,2.04,,2013-06-07 10:42:00,
2013-06-07 06:52:00,74.0,72.0,29.89,South,188,1.0,5.0,95,0.00,,,2.04,,2013-06-07 10:52:00,
2013-06-07 07:02:00,75.0,73.0,29.90,SSW,194,1.0,5.0,95,0.00,,,2.04,,2013-06-07 11:02:00,
2013-06-07 07:12:00,75.0,73.0,29.90,SSW,194,1.0,5.0,95,0.00,,,2.04,,2013-06-07 11:12:00,
2013-06-07 07:22:00,75.0,73.0,29.90,South,189,2.0,6.0,95,0.00,,,2.04,,2013-06-07 11:22:00,
2013-06-07 07:32:00,76.0,74.0,29.89,SSW,202,3.0,11.0,94,0.00,,,1.63,,2013-06-07 11:32:00,
2013-06-07 07:42:00,76.0,74.0,29.89,SSW,202,3.0,11.0,94,0.00,,,1.63,,2013-06-07 11:42:00,
2013-06-07 07:52:00,76.0,74.0,29.89,SSW,202,2.0,8.0,93,0.00,,,1.63,,2013-06-07 11:52:00,
2013-06-07 08:02:00,77.0,74.0,29.90,SW,215,3.0,8.0,92,0.00,,,1.63,,2013-06-07 12:02:00,
2013-06-07 08:13:00,77.0,74.0,29.90,SW,215,3.0,8.0,92,0.00,,,1.63,,2013-06-07 12:13:00,
2013-06-07 08:22:00,78.0,75.0,29.91,SW,227,4.0,10.0,91,0.00,,,1.63,,2013-06-07 12:22:00,
2013-06-07 08:32:00,78.0,75.0,29.91,SW,224,2.0,14.0,90,0.00,,,1.52,,2013-06-07 12:32:00,
2013-06-07 08:42:00,78.0,75.0,29.91,SW,224,2.0,14.0,90,0.00,,,1.52,,2013-06-07 12:42:00,
2013-06-07 08:52:00,78.0,75.0,29.92,SW,219,2.0,6.0,91,0.00,,,1.52,,2013-06-07 12:52:00,
2013-06-07 09:02:00,78.0,75.0,29.92,WSW,246,3.0,8.0,92,0.03,,,1.55,,2013-06-07 13:02:00,
2013-06-07 09:13:00,78.0,75.0,29.92,WSW,246,3.0,8.0,92,0.03,,,1.55,,2013-06-07 13:13:00,
2013-06-07 09:22:00,77.0,75.0,29.93,WSW,240,3.0,8.0,94,0.03,,,1.55,,2013-06-07 13:22:00,
2013-06-07 09:32:00,78.0,76.0,29.93,WSW,241,2.0,8.0,94,0.03,,,0.77,,2013-06-07 13:32:00,
2013-06-07 09:43:00,78.0,76.0,29.93,WSW,241,2.0,8.0,94,0.03,,,0.77,,2013-06-07 13:43:00,
2013-06-07 09:52:00,80.0,77.0,29.93,SW,232,4.0,8.0,92,0.03,,,0.77,,2013-06-07 13:52:00,
2013-06-07 10:03:00,81.0,78.0,29.94,WSW,242,2.0,9.0,90,0.00,,,0.77,,2013-06-07 14:03:00,
2013-06-07 10:13:00,81.0,78.0,29.94,WSW,242,2.0,9.0,90,0.00,,,0.77,,2013-06-07 14:13:00,
2013-06-07 10:23:00,82.0,78.0,29.95,WNW,282,5.0,10.0,87,0.00,,,0.77,,2013-06-07 14:23:00,
2013-06-07 10:33:00,83.0,77.0,29.95,SW,233,6.0,14.0,83,0.00,,,0.74,,2013-06-07 14:33:00,
2013-06-07 10:42:00,83.0,77.0,29.95,SW,233,6.0,14.0,83,0.00,,,0.74,,2013-06-07 14:42:00,
2013-06-07 10:52:00,84.0,78.0,29.96,WSW,237,6.0,12.0,81,0.00,,,0.74,,2013-06-07 14:52:00,
2013-06-07 11:03:00,84.0,77.0,29.95,WNW,290,6.0,16.0,80,0.00,,,0.74,,2013-06-07 15:03:00,
2013-06-07 11:12:00,84.0,77.0,29.95,WNW,290,6.0,16.0,80,0.00,,,0.74,,2013-06-07 15:12:00,
2013-06-07 11:23:00,85.0,78.0,29.95,WSW,256,7.0,11.0,79,0.00,,,0.74,,2013-06-07 15:23:00,
2013-06-07 11:33:00,86.0,78.0,29.95,West,275,6.0,12.0,78,0.00,,,0.74,,2013-06-07 15:33:00,
2013-06-07 11:43:00,86.0,78.0,29.95,West,275,6.0,12.0,78,0.00,,,0.74,,2013-06-07 15:43:00,
2013-06-07 11:53:00,87.0,79.0,29.95,West,271,2.0,9.0,78,0.00,,,0.74,,2013-06-07 15:53:00,
2013-06-07 12:03:00,88.0,79.0,29.95,WSW,249,5.0,10.0,75,0.00,,,0.74,,2013-06-07 16:03:00,
2013-06-07 12:13:00,88.0,79.0,29.95,WSW,249,5.0,10.0,75,0.00,,,0.74,,2013-06-07 16:13:00,
2013-06-07 12:22:00,88.0,79.0,29.95,WNW,288,5.0,12.0,74,0.00,,,0.74,,2013-06-07 16:22:00,
2013-06-07 12:33:00,88.0,78.0,29.94,West,273,7.0,13.0,73,0.00,,,0.70,,2013-06-07 16:33:00,
2013-06-07 12:43:00,88.0,78.0,29.94,West,273,7.0,13.0,73,0.00,,,0.70,,2013-06-07 16:43:00,
2013-06-07 12:52:00,88.0,78.0,29.94,West,273,7.0,13.0,73,0.00,,,0.70,,2013-06-07 16:52:00,
2013-06-07 13:03:00,88.0,78.0,29.93,SW,236,4.0,11.0,72,0.00,,,0.70,,2013-06-07 17:03:00,
2013-06-07 13:13:00,88.0,78.0,29.93,SW,236,4.0,11.0,72,0.00,,,0.70,,2013-06-07 17:13:00,
2013-06-07 13:23:00,89.0,79.0,29.93,SSW,212,4.0,10.0,73,0.00,,,0.70,,2013-06-07 17:23:00,
2013-06-07 13:32:00,88.0,77.0,29.93,SW,225,4.0,15.0,69,0.00,,,0.68,,2013-06-07 17:32:00,
2013-06-07 13:43:00,88.0,77.0,29.93,SW,225,4.0,15.0,69,0.00,,,0.68,,2013-06-07 17:43:00,
2013-06-07 13:52:00,89.0,80.0,29.93,West,269,6.0,11.0,74,0.00,,,0.68,,2013-06-07 17:52:00,
2013-06-07 14:10:00,87.0,78.0,29.93,SW,226,5.0,10.0,75,0.00,,,0.68,,2013-06-07 18:10:00,
2013-06-07 14:20:00,87.0,78.0,29.93,SW,226,5.0,10.0,75,0.00,,,0.68,,2013-06-07 18:20:00,
2013-06-07 14:37:00,85.0,78.0,29.93,SSW,208,3.0,10.0,79,0.00,,,0.68,,2013-06-07 18:37:00,
2013-06-07 14:45:00,85.0,78.0,29.93,SSW,208,3.0,10.0,79,0.00,,,0.68,,2013-06-07 18:45:00,
2013-06-07 15:00:00,85.0,78.0,29.94,South,190,3.0,7.0,79,0.00,,,0.68,,2013-06-07 19:00:00,
2013-06-07 15:08:00,83.0,76.0,29.95,South,188,4.0,12.0,80,0.00,,,0.68,,2013-06-07 19:08:00,
2013-06-07 15:15:00,83.0,76.0,29.95,South,188,4.0,12.0,80,0.00,,,0.68,,2013-06-07 19:15:00,
2013-06-07 15:29:00,82.0,76.0,29.94,SSE,163,5.0,11.0,83,0.00,,,0.66,,2013-06-07 19:29:00,
2013-06-07 15:37:00,80.0,75.0,29.95,South,181,4.0,13.0,86,0.03,,,0.69,,2013-06-07 19:37:00,
2013-06-07 15:59:00,78.0,75.0,29.95,SSE,150,1.0,8.0,91,0.16,,,0.82,,2013-06-07 19:59:00,
2013-06-07 16:08:00,77.0,75.0,29.95,SSE,159,1.0,5.0,93,0.22,,,0.88,,2013-06-07 20:08:00,
2013-06-07 16:17:00,77.0,75.0,29.95,SSE,159,1.0,5.0,93,0.22,,,0.88,,2013-06-07 20:17:00,
2013-06-07 16:27:00,77.0,75.0,29.95,SSE,159,1.0,5.0,93,0.22,,,0.88,,2013-06-07 20:27:00,
2013-06-07 16:38:00,77.0,75.0,29.95,SSE,164,3.0,14.0,94,0.22,,,0.61,,2013-06-07 20:38:00,
2013-06-07 16:48:00,77.0,75.0,29.95,SSE,164,3.0,14.0,94,0.22,,,0.61,,2013-06-07 20:48:00,
2013-06-07 16:59:00,76.0,74.0,29.96,South,180,5.0,15.0,94,0.16,,,0.68,,2013-06-07 20:59:00,
2013-06-07 17:07:00,76.0,74.0,29.96,South,170,3.0,9.0,95,0.23,,,0.81,,2013-06-07 21:07:00,
2013-06-07 17:20:00,76.0,74.0,29.96,South,170,3.0,9.0,95,0.23,,,0.81,,2013-06-07 21:20:00,
2013-06-07 17:29:00,75.0,73.0,29.95,SSW,205,2.0,8.0,95,0.23,,,0.65,,2013-06-07 21:29:00,
2013-06-07 17:39:00,75.0,73.0,29.97,SW,227,1.0,5.0,95,0.21,,,0.66,,2013-06-07 21:39:00,
2013-06-07 17:45:00,75.0,73.0,29.97,SW,227,1.0,5.0,95,0.21,,,0.66,,2013-06-07 21:45:00,
2013-06-07 18:02:00,75.0,73.0,29.97,WSW,246,1.0,8.0,95,0.17,,,0.70,,2013-06-07 22:02:00,
2013-06-07 18:08:00,74.0,72.0,29.97,West,263,0.0,2.0,95,0.07,,,0.72,,2013-06-07 22:08:00,
2013-06-07 18:23:00,74.0,72.0,29.97,West,263,0.0,2.0,95,0.07,,,0.72,,2013-06-07 22:23:00,
2013-06-07 18:28:00,74.0,73.0,29.97,West,263,1.0,4.0,96,0.08,,,0.56,,2013-06-07 22:28:00,
2013-06-07 18:38:00,74.0,73.0,29.96,WSW,238,2.0,4.0,96,0.12,,,0.61,,2013-06-07 22:38:00,
2013-06-07 19:00:00,74.0,73.0,29.96,South,178,2.0,6.0,96,0.15,,,0.68,,2013-06-07 23:00:00,
2013-06-07 19:09:00,74.0,73.0,29.98,South,178,1.0,4.0,96,0.16,,,0.71,,2013-06-07 23:09:00,
2013-06-07 19:19:00,74.0,73.0,29.98,South,178,1.0,4.0,96,0.16,,,0.71,,2013-06-07 23:19:00,
2013-06-07 19:31:00,74.0,73.0,29.99,SW,215,0.0,6.0,96,0.18,,,0.74,,2013-06-07 23:31:00,
2013-06-07 19:38:00,74.0,73.0,29.98,South,186,1.0,5.0,96,0.13,,,0.75,,2013-06-07 23:38:00,
2013-06-07 19:51:00,74.0,73.0,29.98,South,186,1.0,5.0,96,0.13,,,0.75,,2013-06-07 23:51:00,
2013-06-07 20:05:00,74.0,73.0,29.99,SW,235,2.0,7.0,96,0.07,,,0.75,,2013-06-08 00:05:00,
2013-06-07 20:12:00,74.0,73.0,29.99,SSW,206,2.0,7.0,96,0.06,,,0.77,,2013-06-08 00:12:00,
2013-06-07 20:18:00,74.0,73.0,29.99,SSW,206,2.0,7.0,96,0.06,,,0.77,,2013-06-08 00:18:00,
2013-06-07 20:29:00,73.0,72.0,29.99,SW,230,3.0,6.0,96,0.08,,,0.82,,2013-06-08 00:29:00,
2013-06-07 20:45:00,73.0,72.0,29.97,SW,230,0.0,5.0,96,0.08,,,0.83,,2013-06-08 00:45:00,
2013-06-07 21:01:00,73.0,72.0,29.97,SW,227,1.0,4.0,96,0.09,,,0.84,,2013-06-08 01:01:00,
2013-06-07 21:07:00,74.0,73.0,29.97,SW,227,0.0,1.0,96,0.08,,,0.85,,2013-06-08 01:07:00,
2013-06-07 21:19:00,74.0,73.0,29.97,SW,227,0.0,1.0,96,0.08,,,0.85,,2013-06-08 01:19:00,
2013-06-07 21:29:00,74.0,73.0,29.96,SW,227,0.0,1.0,96,0.04,,,0.86,,2013-06-08 01:29:00,
2013-06-07 21:46:00,74.0,73.0,29.96,SW,227,0.0,1.0,96,0.03,,,0.86,,2013-06-08 01:46:00,
2013-06-07 22:02:00,74.0,73.0,29.96,SW,227,0.0,1.0,96,0.02,,,0.86,,2013-06-08 02:02:00,
2013-06-07 22:10:00,74.0,73.0,29.97,SW,227,0.0,2.0,97,0.01,,,0.86,,2013-06-08 02:10:00,
2013-06-07 22:15:00,74.0,73.0,29.97,SW,227,0.0,2.0,97,0.01,,,0.86,,2013-06-08 02:15:00,
2013-06-07 22:29:00,74.0,73.0,29.98,SW,227,0.0,0.0,97,0.00,,,0.86,,2013-06-08 02:29:00,
2013-06-07 22:35:00,73.0,72.0,29.98,SW,227,0.0,0.0,97,0.00,,,0.86,,2013-06-08 02:35:00,
2013-06-07 23:00:00,73.0,72.0,29.98,SW,227,0.0,0.0,97,0.00,,,0.86,,2013-06-08 03:00:00,
2013-06-07 23:10:00,73.0,72.0,29.99,SW,227,0.0,1.0,97,0.00,,,0.86,,2013-06-08 03:10:00,
2013-06-07 23:18:00,73.0,72.0,29.99,SW,227,0.0,1.0,97,0.00,,,0.86,,2013-06-08 03:18:00,
2013-06-07 23:27:00,73.0,72.0,29.99,SW,227,0.0,3.0,97,0.00,,,0.86,,2013-06-08 03:27:00,
2013-06-07 23:37:00,73.0,72.0,29.99,SW,227,0.0,3.0,97,0.00,,,0.86,,2013-06-08 03:37:00,
2013-06-07 23:52:00,73.0,72.0,29.99,SW,227,0.0,3.0,97,0.00,,,0.86,,2013-06-08 03:52:00,